TimeCDT,TemperatureF,Dew PointF,Humidity,Sea Level PressureIn,VisibilityMPH,Wind Direction,Wind SpeedMPH,Gust SpeedMPH,PrecipitationIn,Events,Conditions,WindDirDegrees,DateUTC
12:15 AM,57.2,45.7,65,30.09,10.0,NW,3.5,-,N/A,,Clear,320,2013-10-07 05:15:00
12:35 AM,56.3,45.3,67,30.09,10.0,NW,3.5,-,N/A,,Clear,320,2013-10-07 05:35:00
12:55 AM,55.8,45.5,68,30.09,10.0,NW,4.6,-,N/A,,Clear,320,2013-10-07 05:55:00
1:15 AM,55.4,45.3,69,30.08,10.0,NW,6.9,-,N/A,,Clear,320,2013-10-07 06:15:00
1:35 AM,53.6,45.5,74,30.09,10.0,NW,3.5,-,N/A,,Clear,320,2013-10-07 06:35:00
1:55 AM,55.2,44.6,67,30.09,10.0,NW,3.5,-,N/A,,Clear,310,2013-10-07 06:55:00
2:15 AM,54.1,45.1,72,30.09,10.0,NW,5.8,-,N/A,,Clear,320,2013-10-07 07:15:00
2:35 AM,53.2,45.1,74,30.09,10.0,NW,4.6,-,N/A,,Clear,320,2013-10-07 07:35:00
2:55 AM,54.7,44.6,69,30.09,10.0,NW,5.8,-,N/A,,Clear,310,2013-10-07 07:55:00
3:15 AM,53.1,44.6,73,30.09,10.0,NW,3.5,-,N/A,,Clear,320,2013-10-07 08:15:00
3:35 AM,51.8,45.1,78,30.08,10.0,NW,3.5,-,N/A,,Clear,320,2013-10-07 08:35:00
3:55 AM,50.9,45.3,81,30.08,10.0,NW,3.5,-,N/A,,Clear,320,2013-10-07 08:55:00
4:15 AM,51.6,45.5,80,30.08,10.0,Calm,Calm,-,N/A,,Clear,0,2013-10-07 09:15:00
4:35 AM,51.6,46.4,82,30.08,10.0,Calm,Calm,-,N/A,,Clear,0,2013-10-07 09:35:00
4:55 AM,52.7,45.0,75,30.08,10.0,NNW,3.5,-,N/A,,Clear,330,2013-10-07 09:55:00
5:15 AM,52.9,47.3,81,30.09,10.0,Calm,Calm,-,N/A,,Clear,0,2013-10-07 10:15:00
5:35 AM,53.8,47.7,80,30.09,10.0,Calm,Calm,-,N/A,,Clear,0,2013-10-07 10:35:00
5:55 AM,52.0,44.1,74,30.10,10.0,Calm,Calm,-,N/A,,Clear,0,2013-10-07 10:55:00
6:15 AM,50.4,45.0,82,30.10,10.0,Calm,Calm,-,N/A,,Clear,0,2013-10-07 11:15:00
6:35 AM,49.6,44.1,81,30.10,10.0,Calm,Calm,-,N/A,,Clear,0,2013-10-07 11:35:00
6:55 AM,48.9,44.6,85,30.11,10.0,Calm,Calm,-,N/A,,Clear,0,2013-10-07 11:55:00
7:15 AM,50.4,44.2,80,30.11,10.0,NNW,5.8,-,N/A,,Clear,330,2013-10-07 12:15:00
7:35 AM,50.0,44.6,82,30.12,10.0,NNW,4.6,-,N/A,,Clear,330,2013-10-07 12:35:00
7:55 AM,51.1,46.0,83,30.13,10.0,NNW,4.6,-,N/A,,Clear,330,2013-10-07 12:55:00
8:15 AM,54.5,47.3,77,30.13,10.0,NNW,5.8,-,N/A,,Clear,330,2013-10-07 13:15:00
8:35 AM,56.3,48.6,75,30.14,10.0,NNW,6.9,-,N/A,,Clear,330,2013-10-07 13:35:00
8:55 AM,58.5,49.5,72,30.14,10.0,NNW,5.8,-,N/A,,Clear,340,2013-10-07 13:55:00
9:15 AM,61.2,49.1,65,30.15,10.0,North,6.9,-,N/A,,Clear,360,2013-10-07 14:15:00
9:35 AM,63.3,49.8,61,30.15,10.0,North,5.8,-,N/A,,Clear,350,2013-10-07 14:35:00
9:55 AM,66.0,48.9,54,30.15,10.0,North,6.9,-,N/A,,Clear,350,2013-10-07 14:55:00
10:15 AM,68.9,48.0,47,30.15,10.0,North,6.9,-,N/A,,Clear,360,2013-10-07 15:15:00
10:35 AM,71.2,44.8,39,30.16,10.0,North,9.2,-,N/A,,Clear,350,2013-10-07 15:35:00
10:55 AM,72.7,46.8,40,30.16,10.0,North,6.9,-,N/A,,Clear,10,2013-10-07 15:55:00
11:15 AM,74.3,45.5,36,30.16,10.0,NNE,8.1,-,N/A,,Clear,20,2013-10-07 16:15:00
11:35 AM,74.8,44.6,34,30.15,10.0,NNE,11.5,-,N/A,,Clear,30,2013-10-07 16:35:00
11:55 AM,75.4,45.1,34,30.15,10.0,NNE,6.9,-,N/A,,Clear,20,2013-10-07 16:55:00
12:15 PM,75.6,44.2,33,30.15,10.0,NNE,10.4,16.1,N/A,,Clear,20,2013-10-07 17:15:00
12:35 PM,76.5,44.2,32,30.14,10.0,North,8.1,-,N/A,,Clear,10,2013-10-07 17:35:00
12:55 PM,77.5,45.3,32,30.14,10.0,North,8.1,-,N/A,,Clear,10,2013-10-07 17:55:00
1:15 PM,77.7,43.3,29,30.13,10.0,NE,4.6,-,N/A,,Clear,40,2013-10-07 18:15:00
1:35 PM,77.9,43.0,29,30.12,10.0,North,9.2,16.1,N/A,,Clear,10,2013-10-07 18:35:00
1:55 PM,78.1,43.0,29,30.11,10.0,NNW,3.5,-,N/A,,Clear,340,2013-10-07 18:55:00
2:15 PM,78.4,43.0,28,30.11,10.0,NE,5.8,-,N/A,,Clear,40,2013-10-07 19:15:00
2:35 PM,79.2,43.3,28,30.10,10.0,North,8.1,-,N/A,,Clear,360,2013-10-07 19:35:00
2:55 PM,79.7,42.6,27,30.09,10.0,NNW,5.8,-,N/A,,Clear,330,2013-10-07 19:55:00
3:15 PM,80.1,42.4,26,30.08,10.0,North,8.1,-,N/A,,Clear,10,2013-10-07 20:15:00
3:35 PM,79.7,41.9,26,30.07,10.0,NNW,10.4,-,N/A,,Clear,330,2013-10-07 20:35:00
3:55 PM,79.9,40.1,24,30.06,10.0,North,5.8,-,N/A,,Clear,350,2013-10-07 20:55:00
4:15 PM,80.1,38.8,23,30.06,10.0,North,6.9,-,N/A,,Clear,350,2013-10-07 21:15:00
4:35 PM,80.1,38.1,22,30.06,10.0,NNW,11.5,-,N/A,,Clear,340,2013-10-07 21:35:00
4:55 PM,79.7,37.6,22,30.06,10.0,NNW,9.2,-,N/A,,Clear,330,2013-10-07 21:55:00
5:15 PM,79.2,38.1,23,30.05,10.0,NNW,9.2,-,N/A,,Clear,340,2013-10-07 22:15:00
5:35 PM,78.6,38.8,24,30.05,10.0,NNW,8.1,-,N/A,,Clear,330,2013-10-07 22:35:00
5:55 PM,77.7,39.6,25,30.05,10.0,North,8.1,-,N/A,,Clear,350,2013-10-07 22:55:00
6:15 PM,76.1,40.3,28,30.05,10.0,North,6.9,-,N/A,,Clear,360,2013-10-07 23:15:00
6:35 PM,74.1,42.4,32,30.06,10.0,Calm,Calm,-,N/A,,Clear,0,2013-10-07 23:35:00
6:55 PM,72.9,42.6,34,30.06,10.0,NNE,3.5,-,N/A,,Clear,30,2013-10-07 23:55:00
7:15 PM,69.8,42.8,38,30.06,10.0,Calm,Calm,-,N/A,,Clear,0,2013-10-08 00:15:00
7:35 PM,67.1,46.4,47,30.06,10.0,Calm,Calm,-,N/A,,Clear,0,2013-10-08 00:35:00
7:55 PM,66.9,49.3,53,30.07,10.0,Calm,Calm,-,N/A,,Clear,0,2013-10-08 00:55:00
8:15 PM,65.3,50.4,58,30.07,10.0,Calm,Calm,-,N/A,,Clear,0,2013-10-08 01:15:00
8:35 PM,63.0,50.9,65,30.08,10.0,Calm,Calm,-,N/A,,Clear,0,2013-10-08 01:35:00
8:55 PM,62.1,50.9,67,30.08,10.0,Calm,Calm,-,N/A,,Clear,0,2013-10-08 01:55:00
9:15 PM,61.7,51.6,69,30.08,10.0,Calm,Calm,-,N/A,,Clear,0,2013-10-08 02:15:00
9:35 PM,59.5,52.5,78,30.09,10.0,Calm,Calm,-,N/A,,Clear,0,2013-10-08 02:35:00
9:55 PM,58.8,51.3,76,30.09,10.0,Calm,Calm,-,N/A,,Clear,0,2013-10-08 02:55:00
10:15 PM,57.0,50.4,78,30.09,10.0,Calm,Calm,-,N/A,,Clear,0,2013-10-08 03:15:00
10:35 PM,57.0,48.4,73,30.10,10.0,Calm,Calm,-,N/A,,Clear,0,2013-10-08 03:35:00
10:55 PM,56.7,50.4,79,30.09,10.0,Calm,Calm,-,N/A,,Clear,0,2013-10-08 03:55:00
11:15 PM,56.3,48.9,76,30.09,10.0,Calm,Calm,-,N/A,,Clear,0,2013-10-08 04:15:00
11:35 PM,54.9,49.5,82,30.08,10.0,Calm,Calm,-,N/A,,Clear,0,2013-10-08 04:35:00
11:55 PM,54.1,49.1,83,30.08,10.0,Calm,Calm,-,N/A,,Clear,0,2013-10-08 04:55:00